HK4D-13 Weather Reports


Display with metric or nautical units.
time (UTC)temp
F
wind
direction
speed
MPH
gust
MPH
rain 1hr
in
rain 24hr
in
rain mn
in
humidity
%
barometer
mb
20260507065550 59 350 2.0 0.0 0.00 0.00 0.00 91 1016.0
20260507064548 59 350 2.0 0.0 0.00 0.00 0.00 91 1016.0
20260507063548 59 350 2.0 0.0 0.00 0.00 0.00 91 1016.0
20260507062546 59 350 2.0 0.0 0.00 0.00 0.00 91 1017.0
20260507061545 59 350 2.0 0.0 0.00 0.00 0.00 91 1017.0
20260507060544 59 350 2.0 0.0 0.00 0.00 0.00 91 1017.0
20260507055543 59 10 2.0 0.0 0.00 0.00 0.00 91 1017.0
20260507054543 59 10 2.0 0.0 0.00 0.00 0.00 91 1017.0
20260507053541 59 10 2.0 0.0 0.00 0.00 0.00 90 1017.0
20260507052539 59 10 2.0 0.0 0.00 0.00 0.00 90 1018.0
20260507051538 59 10 2.0 0.0 0.00 0.00 0.00 90 1018.0
20260507050537 59 10 2.0 0.0 0.00 0.00 0.00 89 1018.0
20260507045537 59 0 2.0 0.0 0.00 0.00 0.00 89 1018.0
20260507044536 59 0 2.0 0.0 0.00 0.00 0.00 88 1018.0
20260507043535 59 0 2.0 0.0 0.00 0.00 0.00 87 1018.0
20260507042533 59 0 2.0 0.0 0.00 0.00 0.00 86 1018.0
20260507041527 59 0 2.0 0.0 0.00 0.00 0.00 85 1018.0
20260507040527 59 0 2.0 0.0 0.00 0.00 0.00 83 1018.0
20260507035525 59 0 1.0 0.0 0.00 0.00 0.00 81 1018.0
20260507034524 59 0 1.0 0.0 0.00 0.00 0.00 81 1018.0
20260507033517 59 0 1.0 0.0 0.00 0.00 0.00 82 1018.0
20260507032516 59 0 1.0 0.0 0.00 0.00 0.00 82 1017.0
20260507031516 59 0 1.0 0.0 0.00 0.00 0.00 82 1017.0
20260507030515 59 0 1.0 0.0 0.00 0.00 0.00 82 1017.0
20260507025515 59 0 2.0 0.0 0.00 0.00 0.00 83 1017.0
20260507024514 59 0 2.0 0.0 0.00 0.00 0.00 83 1017.0
20260507023513 61 350 3.0 0.0 0.00 0.00 0.00 82 1017.0
20260507022513 61 350 3.0 0.0 0.00 0.00 0.00 81 1017.0
20260507021512 61 350 3.0 0.0 0.00 0.00 0.00 79 1017.0
20260507020512 61 350 3.0 0.0 0.00 0.00 0.00 77 1017.0
20260507015511 61 350 3.0 0.0 0.00 0.00 0.00 75 1017.0
20260507014511 61 350 3.0 0.0 0.00 0.00 0.00 73 1017.0
20260507013506 61 350 3.0 0.0 0.00 0.00 0.00 71 1017.0
20260507012506 61 350 3.0 0.0 0.00 0.00 0.00 67 1016.0
20260507011504 61 350 3.0 0.0 0.00 0.00 0.00 67 1016.0
20260507010504 61 350 3.0 0.0 0.00 0.00 0.00 63 1016.0
20260507005503 61 0 2.0 0.0 0.00 0.00 0.00 60 1016.0
20260507004502 61 0 2.0 0.0 0.00 0.00 0.00 60 1016.0
20260507003500 61 0 2.0 0.0 0.00 0.00 0.00 60 1016.0
20260507002459 62 0 2.0 0.0 0.00 0.00 0.00 60 1015.0
20260507001457 62 0 2.0 0.0 0.00 0.00 0.00 60 1015.0
20260507000456 62 0 2.0 0.0 0.00 0.00 0.00 60 1015.0
20260506235454 65 0 1.0 0.0 0.00 0.00 0.00 51 1015.0
20260506234453 65 0 1.0 0.0 0.00 0.00 0.00 51 1014.0
20260506233451 65 0 1.0 0.0 0.00 0.00 0.00 51 1014.0
20260506232450 65 0 1.0 0.0 0.00 0.00 0.00 51 1013.0
20260506231449 65 0 1.0 0.0 0.00 0.00 0.00 51 1013.0
20260506230448 66 0 3.0 0.0 0.00 0.00 0.00 48 1013.0
20260506225447 67 0 3.0 0.0 0.00 0.00 0.00 48 1013.0
20260506224446 69 0 3.0 0.0 0.00 0.00 0.00 49 1013.0
20260506223446 68 0 3.0 0.0 0.00 0.00 0.00 47 1013.0
20260506222446 68 0 3.0 0.0 0.00 0.00 0.00 47 1011.0
20260506221445 67 76 3.0 6.0 0.00 0.00 0.00 46 1011.0
20260506220444 71 130 5.0 0.0 0.00 0.00 0.00 44 1011.0
20260506215443 71 130 5.0 0.0 0.00 0.00 0.00 44 1011.0
20260506214442 71 130 5.0 0.0 0.00 0.00 0.00 44 1011.0
20260506213442 73 360 11.0 0.0 0.00 0.00 0.00 45 1011.0
20260506212440 73 360 11.0 0.0 0.00 0.00 0.00 45 1010.0
20260506211440 73 360 11.0 0.0 0.00 0.00 0.00 45 1010.0
20260506210439 73 360 11.0 0.0 0.00 0.00 0.00 45 1010.0
20260506205438 73 360 11.0 0.0 0.00 0.00 0.00 45 1010.0
20260506204438 73 360 11.0 0.0 0.00 0.00 0.00 46 1010.0
20260506203437 72 360 11.0 0.0 0.00 0.00 0.00 48 1010.0
20260506202435 72 360 11.0 0.0 0.00 0.00 0.00 49 1010.0
20260506201432 72 360 11.0 0.0 0.00 0.00 0.00 52 1010.0
20260506200432 71 0 6.0 0.0 0.00 0.00 0.00 55 1010.0
20260506195431 71 0 6.0 0.0 0.00 0.00 0.00 55 1010.0
20260506194431 71 0 6.0 0.0 0.00 0.00 0.00 55 1010.0
20260506193428 71 0 6.0 0.0 0.00 0.00 0.00 55 1010.0
20260506192428 71 0 6.0 0.0 0.00 0.00 0.00 55 1011.0
20260506191427 71 0 6.0 0.0 0.00 0.00 0.00 56 1011.0
20260506190426 71 0 5.0 0.0 0.00 0.00 0.00 57 1011.0
20260506185414 71 0 5.0 0.0 0.00 0.00 0.00 57 1011.0
20260506184414 70 0 5.0 0.0 0.00 0.00 0.00 58 1011.0
20260506183413 70 0 5.0 0.0 0.00 0.00 0.00 59 1011.0
20260506182413 70 0 5.0 0.0 0.00 0.00 0.00 60 1012.0
20260506181412 69 0 5.0 0.0 0.00 0.00 0.00 62 1012.0
20260506180411 68 160 5.0 0.0 0.00 0.00 0.00 65 1012.0
20260506175410 68 160 5.0 0.0 0.00 0.00 0.00 65 1012.0
20260506174410 68 160 5.0 0.0 0.00 0.00 0.00 65 1012.0
20260506173409 67 160 5.0 0.0 0.00 0.00 0.00 65 1012.0
20260506172407 67 160 5.0 0.0 0.00 0.00 0.00 66 1013.0
20260506171406 67 160 5.0 0.0 0.00 0.00 0.00 68 1013.0
20260506170405 66 160 6.0 0.0 0.00 0.00 0.00 70 1013.0
20260506165405 66 160 6.0 0.0 0.00 0.00 0.00 70 1013.0
20260506164405 66 160 6.0 0.0 0.00 0.00 0.00 70 1013.0
20260506163403 66 160 6.0 0.0 0.00 0.00 0.00 71 1013.0
20260506162403 66 160 6.0 0.0 0.00 0.00 0.00 71 1014.0
20260506161402 66 0 4.0 0.0 0.00 0.00 0.00 72 1014.0
20260506160359 66 0 4.0 0.0 0.00 0.00 0.00 72 1014.0
20260506155359 66 0 4.0 0.0 0.00 0.00 0.00 72 1014.0
20260506154358 66 0 4.0 0.0 0.00 0.00 0.00 72 1015.0
20260506153354 66 0 4.0 0.0 0.00 0.00 0.00 72 1015.0
20260506152354 66 0 4.0 0.0 0.00 0.00 0.00 72 1016.0
20260506151351 66 0 4.0 0.0 0.00 0.00 0.00 72 1016.0
20260506150350 65 0 4.0 0.0 0.00 0.00 0.00 72 1016.0
20260506145348 65 0 4.0 0.0 0.00 0.00 0.00 72 1016.0
20260506144347 65 0 4.0 0.0 0.00 0.00 0.00 72 1016.0
20260506143346 59 20 4.0 0.0 0.00 0.00 0.00 93 1016.0
20260506142344 59 20 4.0 0.0 0.00 0.00 0.00 93 1016.0
20260506141342 59 20 4.0 0.0 0.00 0.00 0.00 93 1016.0
20260506140342 59 20 4.0 0.0 0.00 0.00 0.00 93 1016.0
20260506135341 59 20 4.0 0.0 0.00 0.00 0.00 94 1016.0
20260506134341 59 20 4.0 0.0 0.00 0.00 0.00 95 1016.0
20260506133340 58 20 4.0 0.0 0.00 0.00 0.00 96 1016.0
20260506132340 58 20 4.0 0.0 0.00 0.00 0.00 96 1017.0
20260506131339 58 20 4.0 0.0 0.00 0.00 0.00 96 1017.0
20260506130339 58 20 4.0 0.0 0.00 0.00 0.00 97 1017.0
20260506125338 58 20 4.0 0.0 0.00 0.00 0.00 97 1017.0
20260506124338 58 20 4.0 0.0 0.00 0.00 0.00 97 1017.0
20260506123337 58 20 4.0 0.0 0.00 0.00 0.00 97 1017.0
20260506122337 58 20 4.0 0.0 0.00 0.00 0.00 97 1017.0
20260506121335 58 20 4.0 0.0 0.00 0.00 0.00 97 1017.0
20260506120334 58 20 4.0 0.0 0.00 0.00 0.00 98 1017.0
20260506115334 58 20 4.0 0.0 0.00 0.00 0.00 98 1017.0
20260506114333 58 20 4.0 0.0 0.00 0.00 0.00 98 1017.0
20260506113330 58 20 4.0 0.0 0.00 0.00 0.00 98 1017.0
20260506112330 58 20 4.0 0.0 0.00 0.00 0.00 97 1017.0
20260506111329 58 20 4.0 0.0 0.00 0.00 0.00 97 1017.0
20260506110329 58 20 4.0 0.0 0.00 0.00 0.00 96 1017.0
20260506105328 58 20 4.0 0.0 0.00 0.00 0.00 96 1017.0
20260506104326 58 20 4.0 0.0 0.00 0.00 0.00 97 1017.0
20260506103324 57 20 4.0 0.0 0.00 0.00 0.00 97 1017.0
20260506102324 57 20 4.0 0.0 0.00 0.00 0.00 97 1016.0
20260506101323 57 20 4.0 0.0 0.00 0.00 0.00 96 1016.0
20260506100323 57 360 4.0 0.0 0.00 0.00 0.00 97 1016.0
20260506095322 57 360 4.0 0.0 0.00 0.00 0.00 97 1016.0
20260506094321 57 360 4.0 0.0 0.00 0.00 0.00 97 1016.0
20260506093320 59 360 4.0 0.0 0.00 0.00 0.00 97 1016.0
20260506092320 59 360 4.0 0.0 0.00 0.00 0.00 97 1016.0
20260506091319 59 360 4.0 0.0 0.00 0.00 0.00 98 1016.0
20260506090318 59 40 3.0 0.0 0.00 0.00 0.00 99 1016.0
20260506085318 59 40 3.0 0.0 0.00 0.00 0.00 99 1016.0
20260506084316 59 40 3.0 0.0 0.00 0.00 0.00 98 1016.0
20260506083313 59 40 3.0 0.0 0.00 0.00 0.00 98 1016.0
20260506082313 59 40 3.0 0.0 0.00 0.00 0.00 98 1016.0
20260506081312 59 40 3.0 0.0 0.00 0.00 0.00 98 1016.0
20260506080309 59 40 3.0 0.0 0.00 0.00 0.00 98 1016.0
20260506073307 59 40 3.0 0.0 0.00 0.00 0.00 10 1016.0
20260506072307 59 40 3.0 0.0 0.00 0.00 0.00 10 1017.0
20260506071306 60 0 1.0 0.0 0.00 0.00 0.00 10 1017.0
20260506070305 60 350 3.0 0.0 0.00 0.00 0.00 10 1017.0